EW3453 Weather Reports


Display with metric or nautical units.
time (UTC)temp
F
wind
direction
speed
MPH
gust
MPH
rain 1hr
in
rain 24hr
in
rain mn
in
humidity
%
barometer
mb
20260503184551 55 27 4.0 10.0 0.00 0.00 0.00 41 1015.0
20260503183055 55 295 2.0 6.0 0.00 0.00 0.00 40 1015.0
20260503181559 55 41 2.0 11.0 0.00 0.00 0.00 40 1015.2
20260503180050 55 59 2.0 7.0 0.00 0.00 0.00 42 1015.3
20260503174547 54 55 5.0 13.0 0.00 0.00 0.00 43 1015.4
20260503173041 52 340 1.0 10.0 0.00 0.00 0.00 44 1015.4
20260503171539 53 62 2.0 9.0 0.00 0.00 0.00 42 1015.5
20260503081520 36 46 1.0 3.0 0.00 0.00 0.00 72 1015.6
20260503071508 36 63 0.0 2.0 0.00 0.00 0.00 72 1015.3
20260503054553 37 25 0.0 4.0 0.00 0.03 0.00 69 1015.3
20260503053051 38 49 1.0 4.0 0.00 0.03 0.00 67 1015.5
20260503051550 39 31 1.0 5.0 0.00 0.03 0.00 66 1015.5
20260503050046 39 64 0.0 3.0 0.00 0.03 0.00 66 1015.5
20260503044600 39 51 0.0 3.0 0.00 0.08 0.00 66 1015.5
20260503043043 39 49 0.0 4.0 0.00 0.08 0.00 66 1015.5
20260503041552 40 49 0.0 5.0 0.00 0.08 0.00 66 1015.5
20260503040049 40 65 0.0 3.0 0.00 0.08 0.00 67 1015.5
20260503034538 40 53 0.0 3.0 0.00 0.21 0.08 67 1015.6
20260503033041 40 51 0.0 2.0 0.00 0.21 0.08 67 1015.7
20260503031536 40 56 1.0 4.0 0.00 0.21 0.08 67 1015.7
20260503030036 40 354 0.0 4.0 0.00 0.21 0.08 67 1015.8
20260503024538 40 77 0.0 4.0 0.00 0.22 0.08 69 1015.8
20260503023034 40 56 0.0 2.0 0.00 0.22 0.08 70 1015.9
20260503021534 41 56 0.0 3.0 0.00 0.22 0.08 71 1015.9
20260503020033 40 309 0.0 4.0 0.00 0.22 0.08 71 1015.8
20260503014532 40 307 0.0 3.0 0.00 0.22 0.08 71 1015.7
20260503013032 40 283 0.0 1.0 0.00 0.22 0.08 75 1015.7
20260503011535 41 67 0.0 2.0 0.00 0.22 0.08 75 1015.5
20260503010033 40 273 0.0 1.0 0.00 0.22 0.08 76 1015.3
20260503004530 41 330 0.0 1.0 0.00 0.23 0.08 79 1015.2
20260503003030 41 46 0.0 2.0 0.00 0.23 0.08 78 1015.0
20260503001529 41 293 0.0 1.0 0.00 0.23 0.08 77 1015.1
20260503000030 42 104 1.0 3.0 0.00 0.23 0.08 75 1015.1
20260502234534 42 122 0.0 1.0 0.00 0.25 0.08 74 1014.9
20260502233028 42 75 0.0 0.0 0.00 0.00 0.08 74 1014.9
20260502231527 42 53 0.0 3.0 0.00 0.25 0.08 75 1014.8
20260502230026 42 62 0.0 4.0 0.00 0.25 0.08 75 1014.7
20260502224525 43 30 1.0 4.0 0.00 0.25 0.08 73 1014.7
20260502223025 43 88 0.0 2.0 0.00 0.25 0.08 73 1014.6
20260502221524 44 73 1.0 3.0 0.00 0.25 0.08 72 1014.5
20260502220028 43 70 1.0 3.0 0.00 0.25 0.08 72 1014.5
20260502214522 43 58 0.0 3.0 0.00 0.27 0.08 76 1014.5
20260502213029 43 79 0.0 4.0 0.00 0.27 0.08 75 1014.5
20260502211521 43 45 0.0 3.0 0.00 0.27 0.08 76 1014.5
20260502210023 43 81 1.0 2.0 0.00 0.27 0.08 74 1014.4
20260502204520 43 114 0.0 4.0 0.00 0.30 0.08 74 1014.3
20260502203020 43 56 1.0 4.0 0.00 0.30 0.08 75 1014.4
20260502201529 43 58 1.0 3.0 0.00 0.30 0.08 74 1014.4
20260502200018 43 65 1.0 5.0 0.00 0.30 0.08 73 1014.5
20260502194533 44 49 1.0 6.0 0.00 0.30 0.08 71 1014.6
20260502193018 46 32 0.0 4.0 0.00 0.30 0.08 64 1014.6
20260502191519 46 46 1.0 4.0 0.00 0.30 0.08 61 1014.6
20260502190019 46 46 1.0 3.0 0.00 0.30 0.08 63 1014.8